Regional Weather Roundup
Issued by NWS

Home | Current Version | Previous Version | Graphics & Text | Print | Product List | Glossary On
Versions: 1 2 3 4 5 6 7 8 9 10 11 12 13 14 15 16 17 18 19 20 21 22 23 24 25 26 27 28 29 30 31 32 33 34 35 36 37 38 39 40 41 42 43 44 45 46 47 48 49 50
000
ASUS45 KPSR 022010
RWRAZ

ARIZONA HOURLY REGIONAL WEATHER ROUNDUP
NATIONAL WEATHER SERVICE PHOENIX AZ
100 PM MST FRI DEC 02 2016

NOTE: FAIR INDICATES FEW OR NO CLOUDS BELOW 12,000 FEET WITH NO
SIGNIFICANT WEATHER AND/OR OBSTRUCTIONS TO VISIBILITY.

AZZ001>003-036-022100-
NORTHWEST ARIZONA

CITY           SKY/WX    TMP DP  RH WIND       PRES   REMARKS
BULLHEAD CITY  SUNNY     57  19  23 N32G40    29.99S
KINGMAN        SUNNY     49  16  26 N21       29.99F
$$

AZZ004>008-015-016-018-022100-
NORTH CENTRAL ARIZONA

CITY           SKY/WX    TMP DP  RH WIND       PRES   REMARKS
GRAND CANYON   MOSUNNY   32  17  54 NE10      29.98F WCI  24
PRESCOTT       PTSUNNY   42  23  46 SE3       29.94S
FLAGSTAFF      FLURRIES  30  21  69 NE10G20   29.94F WCI  21
PAYSON         PTSUNNY   45  18  33 CALM      29.94F
PAGE           SUNNY     45  13  27 NE7       30.01F
$$

AZZ009>014-017-022100-
NORTHEAST ARIZONA

CITY           SKY/WX    TMP DP  RH WIND       PRES   REMARKS
WINSLOW        CLOUDY    44  18  35 NW12      29.96F
SAINT JOHNS    PTSUNNY   45  17  32 NW12      29.91S
WINDOW ROCK    PTSUNNY   42  14  32 N5        29.93F
SHOW LOW       MOSUNNY   39  16  38 N6G16     29.92F WCI  35
$$

AZZ023-022100-
GREATER PHOENIX AREA

CITY           SKY/WX    TMP DP  RH WIND       PRES   REMARKS
PHOENIX        PTSUNNY   56  27  32 CALM      29.90F
BUCKEYE        PTSUNNY   54  32  43 SE5       29.94S
GLENDALE       PTSUNNY   55  32  41 CALM      29.94F
LUKE AFB       PTSUNNY   57  29  34 S5        29.91F
DEER VALLEY    CLOUDY    56  25  30 SW5       29.90F
SCOTTSDALE     PTSUNNY   57  28  33 VRB3      29.92F
MESA-FALCON    PTSUNNY  N/A N/A N/A SW6       29.89F
MESA-GATEWAY   PTSUNNY   55  25  30 W3        29.92F
$$

AZZ027-028-022100-
SOUTHWEST MARICOPA COUNTY AND PINAL COUNTY

CITY           SKY/WX    TMP DP  RH WIND       PRES   REMARKS
CASA GRANDE    NOT AVBL
GILA BEND      PTSUNNY   59  25  27 N1        29.90F
$$

AZZ503-504-507>509-022100-
SOUTHEAST ARIZONA

CITY           SKY/WX    TMP DP  RH WIND       PRES   REMARKS
TUCSON         MOSUNNY   60  16  18 NW5       29.88F
DAVIS-MONTHAN  PTSUNNY   59  14  17 VRB1      29.87F
RYAN FIELD     SUNNY     57  16  19 CALM      29.89F
NOGALES        SUNNY     57  25  29 S17G25    29.87F
SIERRA VISTA   PTSUNNY   54  16  22 S7        29.89F
DOUGLAS        PTSUNNY   57  27  31 SW18G29   29.88F
SAFFORD        SUNNY     58  10  15 S12       29.86F
$$

AZZ020-021-025-026-031-022100-
SOUTHWEST ARIZONA

CITY           SKY/WX    TMP DP  RH WIND       PRES   REMARKS
YUMA           PTSUNNY   64  22  20 N17G24    29.94F
$$

CAZ031-033-041-043-047-048-061-022100-
SOUTHERN CALIFORNIA

CITY           SKY/WX    TMP DP  RH WIND       PRES   REMARKS
DOWNTOWN L.A.  SUNNY     64  14  14 VRB5G17   30.00
L.A. AIRPORT   SUNNY     65  13  13 N13G25    30.01F
SAN DIEGO      MOSUNNY   67  30  25 W8        29.96F
BURBANK        SUNNY     61  10  13 NE8G17    30.02F
ONTARIO        MOSUNNY   60  13  15 NE15G32   29.99F
RIVERSIDE      SUNNY     60  16  18 NE15G28   30.03S
PALM SPRINGS   SUNNY     63  13  14 N25G33    30.03F
EL CENTRO NAS  PTSUNNY   64  21  19 N23       29.99F
IMPERIAL       MOSUNNY   66  23  19 N22       29.96F
BLYTHE         MOSUNNY   62  20  19 N29       29.96F
NEEDLES        SUNNY     62  19  19 N32G38    30.00F
$$

NVZ020-UTZ003-022100-
SOUTHERN NEVADA-UTAH

CITY           SKY/WX    TMP DP  RH WIND       PRES   REMARKS
LAS VEGAS      MOSUNNY   53  10  18 N16G28    30.09F
SALT LAKE CITY MOSUNNY   35  22  58 NW10      30.23F WCI  27
$$

NMZ009-TXZ055-022100-
NEW MEXICO-WEST TEXAS

CITY           SKY/WX    TMP DP  RH WIND       PRES   REMARKS
ALBUQUERQUE    CLOUDY    48  17  29 E21       29.96F
EL PASO        PTSUNNY   60  23  24 CALM      29.89F
$$


........................KEY........................
SKY/WX - SKY CONDITION/WEATHER
TMP    - TEMPERATURE IN FAHRENHEIT
DP     - DEW POINT IN FAHRENHEIT
RH     - RELATIVE HUMIDITY IN PERCENT
WIND   - DIRECTION AND SPEED IN MILES PER HOUR (MPH)
VRB    - VARIABLE WIND DIRECTION
PRES   - MEAN SEA LEVEL PRESSURE IN INCHES OF MERCURY
         F - FALLING PRESSURE   R - RISING PRESSURE
         S - STEADY PRESSURE
VSB    - VISIBILITY IN MILES
HX     - HEAT INDEX IN FAHRENHEIT
WCI    - WIND CHILL INDEX IN FAHRENHEIT
TC     - TEMPERATURE IN CELSIUS WHICH IS ALSO KNOWN AS
         TEMPERATURE IN CENTIGRADE
AFB    - AIR FORCE BASE
         LUKE AFB IS LUKE AIR FORCE BASE
         DAVIS-MONTHAN IS DAVIS-MONTHAN AIR FORCE BASE
NAS    - NAVAL AIR STATION
         EL CENTRO NAS IS EL CENTRO NAVAL AIR STATION
N/A    - NOT AVAILABLE




USA.gov is the U.S. government's official web portal to all federal, state and local government web resources and services.